******** Week 651 almanac for PRN-01 ******** ID: 01 Health: 000 Eccentricity: 0.5784034729E-003 Time of Applicability(s): 233472.0000 Orbital Inclination(rad): 0.9603223070 Rate of Right Ascen(r/s): -0.7840326581E-008 SQRT(A) (m 1/2): 5153.602539 Right Ascen at Week(rad): 0.6448097230E+000 Argument of Perigee(rad): 0.913375080 Mean Anom(rad): -0.1628632571E+001 Af0(s): 0.2107620239E-003 Af1(s/s): 0.1091393642E-010 week: 651 ******** Week 651 almanac for PRN-02 ******** ID: 02 Health: 000 Eccentricity: 0.1091003418E-001 Time of Applicability(s): 233472.0000 Orbital Inclination(rad): 0.9388945128 Rate of Right Ascen(r/s): -0.8068907531E-008 SQRT(A) (m 1/2): 5153.584473 Right Ascen at Week(rad): 0.6332913848E+000 Argument of Perigee(rad): -2.864701631 Mean Anom(rad): 0.3118257870E-001 Af0(s): 0.3786087036E-003 Af1(s/s): 0.0000000000E+000 week: 651 ******** Week 651 almanac for PRN-03 ******** ID: 03 Health: 000 Eccentricity: 0.1501798630E-001 Time of Applicability(s): 233472.0000 Orbital Inclination(rad): 0.9307212714 Rate of Right Ascen(r/s): -0.8240343243E-008 SQRT(A) (m 1/2): 5153.641602 Right Ascen at Week(rad): -0.5285312828E+000 Argument of Perigee(rad): 1.170707098 Mean Anom(rad): 0.1659785189E+000 Af0(s): 0.9536743164E-005 Af1(s/s): 0.3637978807E-011 week: 651 ******** Week 651 almanac for PRN-04 ******** ID: 04 Health: 000 Eccentricity: 0.9982585907E-002 Time of Applicability(s): 233472.0000 Orbital Inclination(rad): 0.9379477591 Rate of Right Ascen(r/s): -0.8057478483E-008 SQRT(A) (m 1/2): 5153.735352 Right Ascen at Week(rad): 0.6503224665E+000 Argument of Perigee(rad): 0.829362292 Mean Anom(rad): 0.3116591313E+001 Af0(s): 0.9441375732E-004 Af1(s/s): 0.1091393642E-010 week: 651 ******** Week 651 almanac for PRN-05 ******** ID: 05 Health: 000 Eccentricity: 0.2711772919E-002 Time of Applicability(s): 233472.0000 Orbital Inclination(rad): 0.9514360042 Rate of Right Ascen(r/s): -0.7920329914E-008 SQRT(A) (m 1/2): 5153.552734 Right Ascen at Week(rad): 0.1696430327E+001 Argument of Perigee(rad): 0.291036153 Mean Anom(rad): 0.1939762898E+001 Af0(s): -0.2822875977E-003 Af1(s/s): -0.3637978807E-011 week: 651 ******** Week 651 almanac for PRN-06 ******** ID: 06 Health: 000 Eccentricity: 0.7010459900E-002 Time of Applicability(s): 233472.0000 Orbital Inclination(rad): 0.9377080746 Rate of Right Ascen(r/s): -0.8160339911E-008 SQRT(A) (m 1/2): 5153.637695 Right Ascen at Week(rad): -0.4527441681E+000 Argument of Perigee(rad): -0.609736016 Mean Anom(rad): 0.2097744194E+001 Af0(s): 0.3051757812E-004 Af1(s/s): 0.0000000000E+000 week: 651 ******** Week 651 almanac for PRN-07 ******** ID: 07 Health: 000 Eccentricity: 0.5093574524E-002 Time of Applicability(s): 233472.0000 Orbital Inclination(rad): 0.9757519965 Rate of Right Ascen(r/s): -0.7931758961E-008 SQRT(A) (m 1/2): 5153.576660 Right Ascen at Week(rad): -0.2477662100E+001 Argument of Perigee(rad): -3.009404780 Mean Anom(rad): -0.1481251696E+001 Af0(s): 0.5722045898E-004 Af1(s/s): 0.3637978807E-011 week: 651 ******** Week 651 almanac for PRN-08 ******** ID: 08 Health: 000 Eccentricity: 0.1208686829E-001 Time of Applicability(s): 233472.0000 Orbital Inclination(rad): 0.9977490413 Rate of Right Ascen(r/s): -0.7691748964E-008 SQRT(A) (m 1/2): 5153.667480 Right Ascen at Week(rad): -0.2396567097E+001 Argument of Perigee(rad): -2.980307082 Mean Anom(rad): -0.2076035894E+001 Af0(s): 0.9536743164E-006 Af1(s/s): 0.0000000000E+000 week: 651 ******** Week 651 almanac for PRN-09 ******** ID: 09 Health: 000 Eccentricity: 0.1721525192E-001 Time of Applicability(s): 233472.0000 Orbital Inclination(rad): 0.9845544097 Rate of Right Ascen(r/s): -0.7863184676E-008 SQRT(A) (m 1/2): 5153.592285 Right Ascen at Week(rad): -0.2504144990E+001 Argument of Perigee(rad): 1.604564502 Mean Anom(rad): -0.2141348422E+001 Af0(s): 0.1382827759E-003 Af1(s/s): 0.3637978807E-011 week: 651 ******** Week 651 almanac for PRN-10 ******** ID: 10 Health: 000 Eccentricity: 0.1118850708E-001 Time of Applicability(s): 233472.0000 Orbital Inclination(rad): 0.9463367165 Rate of Right Ascen(r/s): -0.7988904198E-008 SQRT(A) (m 1/2): 5153.619629 Right Ascen at Week(rad): 0.1718597773E+001 Argument of Perigee(rad): 0.741515677 Mean Anom(rad): 0.2324143804E+001 Af0(s): -0.2861022949E-004 Af1(s/s): 0.0000000000E+000 week: 651 ******** Week 651 almanac for PRN-11 ******** ID: 11 Health: 000 Eccentricity: 0.1275491714E-001 Time of Applicability(s): 233472.0000 Orbital Inclination(rad): 0.8883390601 Rate of Right Ascen(r/s): -0.8606072763E-008 SQRT(A) (m 1/2): 5153.599609 Right Ascen at Week(rad): 0.3824641791E+000 Argument of Perigee(rad): 1.027608337 Mean Anom(rad): -0.1315896732E+001 Af0(s): -0.2326965332E-003 Af1(s/s): -0.3637978807E-011 week: 651 ******** Week 651 almanac for PRN-12 ******** ID: 12 Health: 000 Eccentricity: 0.3837585449E-002 Time of Applicability(s): 233472.0000 Orbital Inclination(rad): 0.9782686838 Rate of Right Ascen(r/s): -0.7726036106E-008 SQRT(A) (m 1/2): 5153.523926 Right Ascen at Week(rad): -0.1421545164E+001 Argument of Perigee(rad): -0.065775418 Mean Anom(rad): -0.1606019087E+001 Af0(s): 0.5245208740E-004 Af1(s/s): 0.3637978807E-011 week: 651 ******** Week 651 almanac for PRN-13 ******** ID: 13 Health: 000 Eccentricity: 0.4776000977E-002 Time of Applicability(s): 233472.0000 Orbital Inclination(rad): 0.9870770891 Rate of Right Ascen(r/s): -0.7851755629E-008 SQRT(A) (m 1/2): 5153.672363 Right Ascen at Week(rad): 0.2834482659E+001 Argument of Perigee(rad): 1.937663786 Mean Anom(rad): 0.9180066080E+000 Af0(s): 0.2250671387E-003 Af1(s/s): -0.3637978807E-011 week: 651 ******** Week 651 almanac for PRN-14 ******** ID: 14 Health: 000 Eccentricity: 0.6144046783E-002 Time of Applicability(s): 233472.0000 Orbital Inclination(rad): 0.9799524674 Rate of Right Ascen(r/s): -0.7908900866E-008 SQRT(A) (m 1/2): 5153.511719 Right Ascen at Week(rad): 0.2808510597E+001 Argument of Perigee(rad): -2.045475371 Mean Anom(rad): 0.9188073041E+000 Af0(s): 0.1935958862E-003 Af1(s/s): 0.0000000000E+000 week: 651 ******** Week 651 almanac for PRN-15 ******** ID: 15 Health: 000 Eccentricity: 0.4342556000E-002 Time of Applicability(s): 233472.0000 Orbital Inclination(rad): 0.9468100934 Rate of Right Ascen(r/s): -0.8228914196E-008 SQRT(A) (m 1/2): 5153.713867 Right Ascen at Week(rad): 0.2724129295E+001 Argument of Perigee(rad): 0.031097566 Mean Anom(rad): 0.5548123135E+000 Af0(s): -0.9346008301E-004 Af1(s/s): 0.0000000000E+000 week: 651 ******** Week 651 almanac for PRN-16 ******** ID: 16 Health: 000 Eccentricity: 0.6424427032E-002 Time of Applicability(s): 233472.0000 Orbital Inclination(rad): 0.9791555164 Rate of Right Ascen(r/s): -0.7691748964E-008 SQRT(A) (m 1/2): 5153.570801 Right Ascen at Week(rad): -0.1403460969E+001 Argument of Perigee(rad): -0.080430627 Mean Anom(rad): 0.2336772930E+001 Af0(s): -0.2231597900E-003 Af1(s/s): 0.0000000000E+000 week: 651 ******** Week 651 almanac for PRN-17 ******** ID: 17 Health: 000 Eccentricity: 0.7156848907E-002 Time of Applicability(s): 233472.0000 Orbital Inclination(rad): 0.9627251441 Rate of Right Ascen(r/s): -0.7863184676E-008 SQRT(A) (m 1/2): 5153.581055 Right Ascen at Week(rad): -0.3621153397E+000 Argument of Perigee(rad): -2.345904910 Mean Anom(rad): 0.1366449188E+001 Af0(s): 0.1487731934E-003 Af1(s/s): -0.3637978807E-011 week: 651 ******** Week 651 almanac for PRN-18 ******** ID: 18 Health: 000 Eccentricity: 0.1282119751E-001 Time of Applicability(s): 233472.0000 Orbital Inclination(rad): 0.9301759892 Rate of Right Ascen(r/s): -0.8137481816E-008 SQRT(A) (m 1/2): 5153.612793 Right Ascen at Week(rad): 0.1708980058E+001 Argument of Perigee(rad): -2.195340725 Mean Anom(rad): 0.2826089957E+001 Af0(s): 0.1811981201E-003 Af1(s/s): 0.0000000000E+000 week: 651 ******** Week 651 almanac for PRN-19 ******** ID: 19 Health: 000 Eccentricity: 0.7909774780E-002 Time of Applicability(s): 233472.0000 Orbital Inclination(rad): 0.9601545278 Rate of Right Ascen(r/s): -0.7931758961E-008 SQRT(A) (m 1/2): 5153.691895 Right Ascen at Week(rad): -0.3088132524E+000 Argument of Perigee(rad): 0.139501996 Mean Anom(rad): 0.5505669019E+000 Af0(s): -0.2355575562E-003 Af1(s/s): -0.3637978807E-011 week: 651 ******** Week 651 almanac for PRN-20 ******** ID: 20 Health: 000 Eccentricity: 0.5133628845E-002 Time of Applicability(s): 233472.0000 Orbital Inclination(rad): 0.9305594844 Rate of Right Ascen(r/s): -0.8114623721E-008 SQRT(A) (m 1/2): 5153.709473 Right Ascen at Week(rad): 0.1655165645E+001 Argument of Perigee(rad): 1.275357469 Mean Anom(rad): -0.3061819286E+001 Af0(s): 0.6198883057E-004 Af1(s/s): 0.0000000000E+000 week: 651 ******** Week 651 almanac for PRN-21 ******** ID: 21 Health: 000 Eccentricity: 0.1857376099E-001 Time of Applicability(s): 233472.0000 Orbital Inclination(rad): 0.9316200883 Rate of Right Ascen(r/s): -0.8103194673E-008 SQRT(A) (m 1/2): 5153.589355 Right Ascen at Week(rad): 0.6569722133E+000 Argument of Perigee(rad): -2.292363138 Mean Anom(rad): -0.2397518719E+001 Af0(s): -0.2040863037E-003 Af1(s/s): -0.3637978807E-011 week: 651 ******** Week 651 almanac for PRN-22 ******** ID: 22 Health: 000 Eccentricity: 0.5739212036E-002 Time of Applicability(s): 233472.0000 Orbital Inclination(rad): 0.9278870023 Rate of Right Ascen(r/s): -0.8171768958E-008 SQRT(A) (m 1/2): 5153.632324 Right Ascen at Week(rad): 0.1712575325E+001 Argument of Perigee(rad): -1.995761062 Mean Anom(rad): 0.1972436764E+001 Af0(s): 0.1430511475E-003 Af1(s/s): 0.0000000000E+000 week: 651 ******** Week 651 almanac for PRN-23 ******** ID: 23 Health: 000 Eccentricity: 0.7549762726E-002 Time of Applicability(s): 233472.0000 Orbital Inclination(rad): 0.9615087452 Rate of Right Ascen(r/s): -0.8091765626E-008 SQRT(A) (m 1/2): 5153.622070 Right Ascen at Week(rad): 0.2758309053E+001 Argument of Perigee(rad): -3.030206024 Mean Anom(rad): 0.1020396830E+000 Af0(s): 0.2326965332E-003 Af1(s/s): -0.3637978807E-011 week: 651 ******** Week 651 almanac for PRN-25 ******** ID: 25 Health: 000 Eccentricity: 0.1209735870E-002 Time of Applicability(s): 233472.0000 Orbital Inclination(rad): 0.9671053783 Rate of Right Ascen(r/s): -0.7851755629E-008 SQRT(A) (m 1/2): 5153.711426 Right Ascen at Week(rad): -0.1454448603E+001 Argument of Perigee(rad): 0.626962216 Mean Anom(rad): -0.2828146375E+001 Af0(s): 0.3147125244E-004 Af1(s/s): 0.0000000000E+000 week: 651 ******** Week 651 almanac for PRN-26 ******** ID: 26 Health: 063 Eccentricity: 0.2078866959E-001 Time of Applicability(s): 233472.0000 Orbital Inclination(rad): 0.9846382993 Rate of Right Ascen(r/s): -0.7863184676E-008 SQRT(A) (m 1/2): 5153.609863 Right Ascen at Week(rad): 0.2828805882E+001 Argument of Perigee(rad): 1.171636999 Mean Anom(rad): -0.3156045629E-001 Af0(s): -0.3385543823E-003 Af1(s/s): -0.1455191523E-010 week: 651 ******** Week 651 almanac for PRN-27 ******** ID: 27 Health: 000 Eccentricity: 0.2189731598E-001 Time of Applicability(s): 233472.0000 Orbital Inclination(rad): 0.9820556988 Rate of Right Ascen(r/s): -0.7840326581E-008 SQRT(A) (m 1/2): 5153.500488 Right Ascen at Week(rad): -0.2530751842E+001 Argument of Perigee(rad): -1.123923305 Mean Anom(rad): 0.9316315482E+000 Af0(s): 0.3566741943E-003 Af1(s/s): 0.3637978807E-011 week: 651 ******** Week 651 almanac for PRN-28 ******** ID: 28 Health: 000 Eccentricity: 0.1789045334E-001 Time of Applicability(s): 233472.0000 Orbital Inclination(rad): 0.9774957013 Rate of Right Ascen(r/s): -0.7714607059E-008 SQRT(A) (m 1/2): 5153.665039 Right Ascen at Week(rad): -0.1396585394E+001 Argument of Perigee(rad): -1.842631504 Mean Anom(rad): 0.1942937220E+001 Af0(s): 0.1125335693E-003 Af1(s/s): 0.3637978807E-011 week: 651 ******** Week 651 almanac for PRN-29 ******** ID: 29 Health: 000 Eccentricity: 0.2235889435E-002 Time of Applicability(s): 233472.0000 Orbital Inclination(rad): 0.9632404657 Rate of Right Ascen(r/s): -0.7874613724E-008 SQRT(A) (m 1/2): 5153.578125 Right Ascen at Week(rad): -0.3535986754E+000 Argument of Perigee(rad): -1.191897455 Mean Anom(rad): -0.2140060867E+001 Af0(s): 0.2841949463E-003 Af1(s/s): 0.3637978807E-011 week: 651 ******** Week 651 almanac for PRN-30 ******** ID: 30 Health: 000 Eccentricity: 0.1087665558E-001 Time of Applicability(s): 233472.0000 Orbital Inclination(rad): 0.9583688783 Rate of Right Ascen(r/s): -0.7931758961E-008 SQRT(A) (m 1/2): 5153.568848 Right Ascen at Week(rad): -0.1544437024E+001 Argument of Perigee(rad): 1.555025836 Mean Anom(rad): 0.1193847138E+001 Af0(s): -0.4577636719E-004 Af1(s/s): -0.1455191523E-010 week: 651 ******** Week 651 almanac for PRN-31 ******** ID: 31 Health: 000 Eccentricity: 0.8013248444E-002 Time of Applicability(s): 233472.0000 Orbital Inclination(rad): 0.9808393000 Rate of Right Ascen(r/s): -0.7886042771E-008 SQRT(A) (m 1/2): 5153.545410 Right Ascen at Week(rad): -0.2475210577E+001 Argument of Perigee(rad): -0.903988810 Mean Anom(rad): -0.1487251299E+001 Af0(s): 0.2079010010E-003 Af1(s/s): 0.3637978807E-011 week: 651 ******** Week 651 almanac for PRN-32 ******** ID: 32 Health: 000 Eccentricity: 0.1189708710E-001 Time of Applicability(s): 233472.0000 Orbital Inclination(rad): 0.9521131129 Rate of Right Ascen(r/s): -0.7897471819E-008 SQRT(A) (m 1/2): 5153.691406 Right Ascen at Week(rad): 0.1785454767E+001 Argument of Perigee(rad): -0.615549114 Mean Anom(rad): -0.8529229041E+000 Af0(s): -0.4072189331E-003 Af1(s/s): -0.3637978807E-011 week: 651